Kaneohe MCBH, HI

1:00 PM HST on May 23, 2017 (GMT -1000)
Kaneohe Bay Marine Corps Air Facility

Weather History for PHNG - November, 2011

Change the Weather History Date:

Friday, November 25, 2011

  Actual Average Record
Temperature  
Mean Temperature 76 °F -  
Max Temperature 79 °F 77 °F 84 °F (2001)
Min Temperature 72 °F 69 °F 56 °F (2005)
Cooling Degree Days 10    
Growing Degree Days 26 (Base 50)    
Moisture  
Dew Point 66 °F    
Average Humidity 71    
Maximum Humidity 81    
Minimum Humidity 66    
Precipitation  
Precipitation 0.01 in - - ()
Sea Level Pressure  
Sea Level Pressure 30.09 in    
Wind  
Wind Speed 6 mph (NE)    
Max Wind Speed 14 mph    
Max Gust Speed 20 mph    
Visibility 10 miles    
Events Rain    
Averages and records for this station are not official NWS values.
T = Trace of Precipitation, MM = Missing Value Source: NWS Daily Summary

Daily Weather History Graph

Daily Weather History Graph

Search for Another Location

Airport or City:

Trip Planner

Search our weather history database for the weather conditions in past years. The results will help you decide how hot, cold, wet, or windy it might be!

Date:

Astronomy

Nov. 25, 2011 Rise Set
Actual Time 6:48 AM HST 5:47 PM HST
Civil Twilight 6:24 AM HST 6:11 PM HST
Nautical Twilight 5:57 AM HST 6:38 PM HST
Astronomical Twilight 5:30 AM HST 7:05 PM HST
Moon 7:22 AM HST (11/25) 6:33 PM HST (11/25)
Length of Visible Light 11h 46m
Length of Day
10h 59m
New Moon, 1% of the Moon is Illuminated
Nov 25
New Moon
Dec 1
First Quarter
Dec 10
Full
Dec 17
Last Quarter
Dec 24
New

Hourly Weather History & Observations

Time (HST) Temp. Dew Point Humidity Pressure Visibility Wind Dir Wind Speed Gust Speed Precip Events Conditions
12:57 AM 75.0 °F 64.9 °F 71% 30.08 in 10.0 mi Variable 3.5 mph - N/A   Scattered Clouds
1:57 AM 73.9 °F 66.9 °F 79% 30.08 in 10.0 mi ENE 9.2 mph - N/A   Scattered Clouds
2:57 AM 73.9 °F 66.0 °F 76% 30.05 in 10.0 mi ENE 4.6 mph - N/A   Mostly Cloudy
3:57 AM 75.0 °F 66.0 °F 73% 30.05 in 10.0 mi NE 8.1 mph - N/A   Overcast
4:48 AM 73.4 °F 66.2 °F 78% 30.07 in 6.2 mi Variable 4.6 mph - N/A   Overcast
4:57 AM 73.9 °F 66.0 °F 76% 30.06 in 10.0 mi Variable 4.6 mph - N/A   Overcast
6:57 AM 72.0 °F 66.0 °F 81% 30.08 in 10.0 mi Calm Calm - 0.01 in Rain Light Rain
7:57 AM 75.0 °F 66.9 °F 76% 30.10 in 10.0 mi ENE 4.6 mph - 0.00 in   Overcast
8:57 AM 77.0 °F 66.0 °F 69% 30.11 in 10.0 mi ENE 4.6 mph - N/A   Overcast
9:57 AM 78.1 °F 66.0 °F 66% 30.12 in 10.0 mi NE 8.1 mph - N/A   Overcast
10:57 AM 78.1 °F 66.9 °F 68% 30.11 in 10.0 mi ENE 5.8 mph - N/A   Partly Cloudy
11:57 AM 78.1 °F 66.0 °F 66% 30.09 in 10.0 mi ENE 6.9 mph - N/A   Clear
12:57 PM 79.0 °F 66.9 °F 66% 30.07 in 10.0 mi NE 8.1 mph - N/A   Clear
1:57 PM 78.1 °F 66.9 °F 68% 30.05 in 10.0 mi NE 5.8 mph - N/A   Mostly Cloudy
2:57 PM 78.1 °F 66.0 °F 66% 30.05 in 10.0 mi ENE 10.4 mph - N/A   Partly Cloudy
3:57 PM 77.0 °F 64.9 °F 66% 30.06 in 10.0 mi NE 6.9 mph - N/A   Clear
4:00 PM - - N/A% - - North - - N/A   Unknown
4:15 PM - - N/A% - - North - - N/A   Unknown
4:57 PM 75.9 °F 64.9 °F 69% 30.07 in 10.0 mi NE 9.2 mph - N/A   Partly Cloudy
5:57 PM 75.0 °F 64.9 °F 71% 30.08 in 10.0 mi NE 8.1 mph - N/A   Clear
6:57 PM 75.2 °F 64.4 °F 69% 30.10 in 10.0 mi NE 9.2 mph - N/A   Partly Cloudy
7:57 PM 75.0 °F 64.9 °F 71% 30.12 in 10.0 mi NE 8.1 mph - N/A   Partly Cloudy
8:57 PM 75.0 °F 66.0 °F 73% 30.13 in 10.0 mi NE 11.5 mph - N/A   Scattered Clouds
9:57 PM 75.0 °F 64.9 °F 71% 30.13 in 10.0 mi NNE 11.5 mph 19.6 mph N/A   Mostly Cloudy
10:57 PM 75.0 °F 66.0 °F 73% 30.13 in 10.0 mi NNE 12.7 mph - N/A   Partly Cloudy
11:57 PM 75.0 °F 64.9 °F 71% 30.13 in 10.0 mi NNE 13.8 mph - N/A   Scattered Clouds